Probability
0 0 0 0 0 0 0 0 0 0 0 0 0 0 0 0 0 0 0 0 1 1 1 0 1 0 0 0 1 2 3 3 2 1 0 0 0 0 0 0 0 0 0 0
0 0 0 0 0 0 0 0 0 0 0 0 0 0 0 0 0 0 0 0 0 0 0 1 1 1 0 0 1 3 4 4 3 2 1 0 0 0 0 0 0 0 0 0
0 0 0 0 0 0 0 0 0 0 0 0 0 0 0 0 0 0 0 0 0 0 0 1 2 2 1 0 1 4 6 6 5 4 1 0 0 0 0 0 0 0 0 0
0 0 0 0 0 0 0 0 0 0 0 0 0 0 0 0 0 0 0 0 0 0 0 1 2 3 2 1 2 5 6 6 6 5 3 1 0 0 0 0 0 0 0 0
0 0 0 0 0 0 0 0 0 0 0 0 0 0 0 0 0 0 0 0 0 0 0 1 2 3 3 3 3 4 6 6 6 6 4 1 0 0 0 0 0 0 0 0
0 0 0 0 0 0 0 0 0 0 0 0 0 0 0 0 0 0 0 0 0 0 0 0 1 1 2 3 3 4 5 6 6 6 5 2 1 0 0 0 0 0 0 0
0 0 0 0 0 0 0 0 0 0 0 0 0 0 0 0 0 0 0 0 0 0 0 0 0 0 2 4 4 4 4 6 6 6 4 2 1 0 0 0 0 0 0 0
0 0 0 0 0 0 0 0 0 0 0 0 0 0 0 0 0 0 0 0 0 0 0 0 0 1 3 4 4 4 4 5 6 6 4 1 0 0 0 0 0 0 0 0
0 0 0 0 0 0 0 0 0 0 0 0 0 0 0 0 0 0 0 0 0 0 0 0 1 3 4 4 4 3 3 4 6 6 5 2 0 0 0 0 0 0 0 0
0 0 0 0 0 0 0 0 0 0 0 0 0 0 0 0 0 0 0 0 0 0 0 1 2 4 4 4 3 4 3 4 5 6 6 3 1 0 0 0 0 0 0 0
0 0 0 0 0 0 0 0 0 0 0 0 0 0 0 0 0 0 0 0 0 0 0 1 3 4 4 4 4 5 4 4 5 6 6 5 2 0 0 0 0 0 0 0
0 0 0 0 0 0 0 0 0 0 0 0 0 0 0 0 0 0 0 0 0 0 0 1 4 5 5 4 4 6 6 5 4 5 6 5 3 1 0 0 0 0 0 0
0 0 0 0 0 0 0 0 0 0 0 0 0 0 0 0 0 0 0 0 0 0 1 3 5 6 6 5 5 6 6 6 4 4 6 6 3 1 0 0 0 0 0 0
0 0 0 0 0 0 0 0 0 0 0 0 0 0 0 0 0 0 0 0 0 1 2 4 6 6 6 5 5 6 6 5 4 4 4 4 3 1 0 0 0 0 0 0
0 0 0 0 0 0 0 0 0 0 0 0 0 0 0 0 0 0 0 0 0 1 2 4 5 6 5 4 4 4 4 3 3 2 2 1 1 1 0 0 0 0 0 0
0 0 0 0 0 0 0 0 0 0 0 0 0 0 0 0 0 0 0 0 0 0 1 3 4 4 4 3 2 1 1 1 1 1 0 0 0 0 0 0 0 0 0 0
0 0 0 0 0 0 0 0 0 0 0 0 0 0 0 0 0 0 0 0 0 0 1 2 3 3 3 2 1 0 0 0 0 0 0 0 0 0 0 0 0 0 0 0
0 0 0 0 0 0 0 0 0 0 0 0 0 0 0 0 0 0 0 0 0 0 1 2 3 3 3 2 1 0 0 0 0 0 0 0 0 0 0 0 0 0 0 0
0 0 0 0 0 0 0 0 0 0 0 0 0 0 0 0 0 0 0 0 0 0 1 2 3 3 3 2 1 0 0 0 0 0 0 0 0 0 0 0 0 0 0 0
0 0 0 0 0 0 0 0 0 0 0 0 0 0 0 0 0 0 0 0 0 0 1 2 3 3 2 1 0 0 0 0 0 0 0 0 0 0 0 0 0 0 0 0
0 0 0 0 0 0 0 0 0 0 0 0 0 0 0 0 0 0 0 0 0 0 1 2 3 3 1 0 0 0 0 0 0 0 0 0 0 0 0 0 0 0 0 0
0 0 0 0 0 0 0 0 0 0 0 0 0 0 0 0 0 0 0 0 0 0 1 2 3 2 1 0 0 0 0 0 0 0 0 0 0 0 0 0 0 0 0 0
0 0 0 0 0 0 0 0 0 0 0 0 0 0 0 0 0 0 0 0 0 0 1 2 2 1 0 0 0 0 0 0 0 0 0 0 0 0 0 0 0 0 0 0
0 0 0 0 0 0 0 0 0 0 0 0 0 0 0 0 0 0 0 0 0 0 0 1 1 1 0 0 0 0 0 0 0 0 0 0 0 0 0 0 0 0 0 0
0 0 0 0 0 0 0 0 0 0 0 0 0 0 0 0 0 0 0 0 0 0 0 0 1 1 1 0 0 0 0 0 0 0 0 0 0 0 0 0 0 0 0 0
0 0 0 0 0 0 0 0 0 0 0 0 0 0 0 0 0 0 0 0 0 0 0 0 1 2 1 0 0 0 0 0 0 0 0 0 0 0 0 0 0 0 0 0
Wind_Speed
0 3 3 6 6 5 3 2 2 4 3 2 3 3 5 4 4 4 4 5 5 6 6 6 7 6 6 5 5 6 6 4 4 3 3 3 2 1 1 2 3 3 4 4
3 3 6 4 3 2 2 1 2 3 2 2 3 4 5 4 6 6 6 6 6 5 4 6 6 6 6 6 6 6 6 5 5 4 3 3 3 1 1 1 2 3 3 4
4 5 3 2 1 1 2 3 3 3 3 1 1 3 3 3 3 3 4 6 7 8 8 8 7 7 6 7 8 7 7 6 5 5 3 3 3 2 2 1 1 1 2 3
3 4 1 1 2 2 3 3 2 2 1 2 1 2 5 4 3 3 4 4 6 6 7 8 8 8 8 8 7 8 7 6 6 6 6 6 4 3 2 2 1 1 2 3
3 1 1 2 3 2 4 2 1 1 1 2 1 2 6 2 4 6 6 5 6 7 7 8 9 10 8 7 7 7 7 6 6 6 7 7 4 3 2 1 2 1 1 2
2 2 2 3 2 1 1 3 4 3 3 3 4 4 5 4 7 6 5 5 6 6 7 6 6 6 6 6 6 6 7 6 6 6 6 7 7 5 4 3 3 2 1 1
3 3 2 0 2 3 4 5 3 4 2 5 2 2 6 6 6 6 6 5 5 5 5 5 6 6 6 6 7 6 7 6 6 7 6 7 7 7 6 5 4 3 2 1
0 4 3 1 2 2 1 6 5 3 4 4 2 3 5 4 3 2 3 3 4 5 5 6 7 7 6 7 8 7 8 7 7 7 7 6 6 5 4 4 4 4 3 3
2 4 4 2 1 4 1 2 4 4 1 2 3 3 4 3 3 2 2 1 2 4 5 6 6 6 6 6 8 9 8 7 7 7 6 5 5 5 5 4 4 3 3 3
3 2 4 3 2 2 2 3 4 3 2 3 3 3 3 2 2 2 1 1 2 3 4 5 5 5 5 6 6 8 8 8 7 7 6 6 6 6 5 4 4 4 4 4
3 2 3 2 0 1 2 2 3 2 3 3 3 5 4 5 4 3 3 3 3 3 4 5 4 4 4 4 5 7 7 6 6 7 6 5 5 5 5 5 5 4 4 4
1 4 1 4 4 3 4 3 4 2 2 2 2 7 4 4 3 2 2 2 2 3 4 4 4 4 4 4 5 6 6 6 6 6 6 6 5 5 5 5 4 4 4 4
2 4 2 4 4 3 0 1 2 2 2 2 3 7 4 2 2 1 1 1 1 2 2 3 3 4 5 5 4 5 5 6 5 5 6 5 5 5 5 5 4 4 4 4
3 3 5 7 6 3 4 4 2 2 3 3 6 7 6 4 3 4 2 1 1 2 3 3 3 3 4 5 5 4 4 4 5 5 6 6 5 5 5 4 4 4 4 4
3 2 3 6 6 5 5 7 6 6 7 7 7 7 8 6 5 4 3 1 0 2 3 4 4 4 3 4 4 4 4 4 5 5 6 6 5 4 4 4 4 4 4 5
2 1 1 4 5 5 6 7 7 7 6 6 6 8 7 5 3 2 2 2 1 2 4 4 4 4 4 4 5 5 5 5 4 5 6 5 5 4 4 5 5 4 4 4
1 2 0 4 6 3 6 7 7 5 5 6 8 9 4 3 4 5 4 4 4 4 4 4 5 6 5 5 6 7 6 5 5 5 5 5 5 5 5 5 5 5 4 4
5 3 2 2 2 6 8 4 4 4 4 4 4 4 4 6 6 5 4 5 4 4 4 4 4 5 5 4 4 5 5 5 5 4 5 5 6 6 5 5 5 4 4 4
6 6 3 2 3 8 7 3 1 2 5 2 1 2 2 2 1 3 4 5 6 6 6 6 6 5 5 4 4 5 5 5 5 5 5 6 6 6 6 6 5 4 4 4
3 4 4 3 4 7 6 4 3 1 4 3 1 1 2 1 1 5 5 4 5 4 4 5 4 4 5 4 5 5 5 5 5 5 5 5 6 7 7 7 5 4 4 4
1 1 4 5 5 8 6 4 2 2 6 4 2 2 3 3 6 7 5 4 4 4 4 4 5 5 5 5 6 5 5 5 5 4 4 5 6 6 6 6 4 5 4 4
5 4 5 4 5 9 4 0 3 6 4 3 3 3 3 3 4 4 3 3 3 3 3 4 4 5 5 6 7 6 5 5 4 4 5 5 5 5 5 6 5 5 5 5
5 6 5 7 8 5 3 4 4 3 3 4 3 3 2 3 3 3 4 3 3 3 2 3 4 5 4 6 7 7 5 5 4 4 4 4 4 4 5 6 6 5 5 4
4 2 2 4 6 5 5 5 4 3 3 5 4 3 3 3 4 4 4 3 3 3 2 3 3 4 4 5 6 6 5 5 5 5 4 4 4 4 4 4 5 5 5 4
5 2 2 6 7 5 5 4 5 5 4 4 4 3 3 3 4 5 4 3 3 3 2 3 4 5 5 5 5 5 6 6 6 5 4 4 4 5 5 4 4 5 5 6
6 6 6 8 8 6 7 6 6 6 5 5 4 4 4 4 5 4 4 3 3 2 2 3 4 5 5 5 5 5 6 7 6 5 4 4 3 4 4 4 2 2 3 5
Wind_Direction
99 87 217 224 207 206 207 198 238 242 237 149 186 219 237 225 196 198 199 195 192 193 189 174 169 161 153 151 150 151 149 150 139 133 130 127 132 131 108 122 126 122 124 124
43 251 238 229 226 213 214 213 252 276 258 196 210 242 239 225 208 201 195 194 191 185 173 172 168 161 163 166 163 163 162 159 156 157 158 154 148 143 139 119 106 114 127 136
191 240 241 215 217 236 245 210 224 250 316 359 81 312 277 265 238 214 194 190 187 182 180 179 173 172 169 173 173 174 176 167 164 154 130 107 83 65 56 68 93 113 135 137
222 253 208 169 217 184 250 245 209 212 88 277 158 271 274 250 268 238 211 190 189 189 181 179 176 177 181 185 178 172 174 172 171 155 145 144 142 151 184 183 167 135 121 129
251 236 129 210 237 196 222 232 202 214 177 293 269 199 275 249 242 246 230 206 193 190 182 183 184 184 184 180 175 170 169 170 169 159 154 148 147 159 155 144 138 134 110 131
249 242 191 209 241 199 171 45 21 34 79 270 236 183 265 232 223 233 229 206 188 189 187 181 178 175 176 174 170 165 165 170 167 160 158 157 159 157 148 154 159 163 143 143
326 309 301 37 28 1 61 79 26 355 358 257 243 175 247 239 223 211 204 198 187 179 171 166 166 173 176 173 170 165 166 170 169 164 169 172 168 167 170 173 176 169 161 169
200 286 284 299 173 200 202 139 158 203 231 278 328 225 254 256 210 187 177 185 182 177 173 174 176 177 178 177 173 170 171 171 170 171 180 179 170 170 176 178 176 179 186 187
170 263 292 294 269 145 136 185 179 154 229 254 263 268 310 360 33 43 51 86 184 189 181 179 176 176 177 176 178 176 172 173 175 177 177 180 177 175 177 177 174 178 186 182
152 252 280 294 19 22 129 145 80 112 176 249 271 242 233 253 289 296 249 237 236 209 189 178 172 176 182 179 178 170 170 173 177 180 181 177 181 182 174 166 172 179 185 182
108 146 305 352 150 227 47 64 94 127 166 175 247 263 224 203 216 226 230 228 221 202 188 182 177 171 168 160 164 166 170 170 176 180 178 172 176 173 165 168 179 182 183 179
103 122 246 262 268 203 163 168 138 154 249 194 206 265 274 205 213 225 262 264 244 201 184 169 160 149 150 159 162 167 169 171 180 177 169 169 172 169 168 176 183 178 181 184
102 102 50 334 334 356 7 170 138 141 146 189 203 263 307 337 326 298 292 286 272 191 159 142 149 154 165 168 166 168 172 174 172 163 160 165 170 172 178 180 181 176 174 174
103 123 171 207 233 243 267 266 226 150 184 229 229 253 293 302 293 297 294 259 220 175 162 159 163 175 172 168 166 167 172 171 165 162 163 173 182 180 184 177 170 169 162 157
87 154 226 245 251 243 253 258 243 223 209 212 238 241 255 252 245 252 261 267 224 181 175 177 180 184 174 168 169 172 175 173 167 164 170 179 180 174 169 167 165 158 154 155
68 155 300 286 276 264 264 262 251 243 229 231 245 258 255 246 237 244 239 210 233 232 202 187 182 179 181 183 181 178 182 182 169 171 177 173 166 157 158 161 157 150 151 149
177 140 129 274 297 314 265 243 231 238 230 211 233 245 250 244 221 213 212 205 213 228 219 198 188 186 192 192 188 186 186 177 169 175 174 169 164 161 163 159 147 152 156 150
173 163 170 250 330 244 247 246 222 234 258 252 240 237 221 219 227 219 205 202 226 223 211 202 200 194 194 187 181 177 170 167 171 176 176 174 169 167 161 153 152 152 152 153
175 163 168 173 234 267 280 282 256 242 270 290 291 291 286 272 351 292 246 215 216 217 206 202 199 190 186 183 173 163 166 170 171 181 185 182 173 166 163 164 166 157 149 153
127 140 153 177 211 239 248 276 289 148 260 299 291 267 303 28 267 260 266 258 238 230 209 197 187 175 177 183 161 159 173 174 185 194 191 184 177 170 171 174 167 156 153 159
113 151 186 206 232 257 261 283 24 180 250 284 265 251 245 230 231 251 256 259 253 230 216 192 177 179 186 178 160 165 176 192 198 190 180 175 178 178 173 167 159 154 151 150
190 190 200 190 223 250 269 161 183 235 259 256 261 254 259 274 285 281 253 249 250 234 214 192 183 190 186 175 166 174 191 198 184 170 169 170 174 177 165 157 157 155 153 154
204 197 199 201 221 242 249 237 252 242 254 259 253 269 259 271 278 278 272 259 246 230 220 203 188 186 186 182 176 182 197 180 167 163 171 172 171 170 161 161 161 158 159 162
264 234 211 251 260 266 274 276 276 261 258 263 252 248 236 253 260 266 266 262 257 243 219 206 187 182 195 195 190 187 178 165 157 161 169 167 168 168 165 164 165 165 170 175
236 232 247 263 273 287 277 272 278 284 283 280 277 259 241 252 262 263 258 256 253 260 247 213 200 197 202 196 194 187 170 161 160 164 168 169 170 170 168 169 177 180 189 187
222 213 219 242 244 242 263 275 290 285 273 264 270 285 279 258 260 264 255 255 251 251 245 229 215 204 201 192 195 190 173 163 163 169 174 175 174 171 165 164 164 192 187 192